CFG1CR EDDF-EGKK

Flight info

Callsign CFG1CR
Flight time 1h 11m
Altitude 32000
Route OBOKA3M OBOKA Z29 TORNU DCT GALSO Q63 ARREK Y4 TEBRA
Aircraft A321/M-SDE3FGHIRWY/LB1

Departure

Time 2026-04-16 13:11
Airport Frankfurt Main Airport (EDDF)

Arrival

Time 2026-04-16 14:22
Airport London Gatwick Airport (EGKK)
Time Latitude Longitude Altitude Speed Heading
2026-04-16 12:37 50.04714 8.57625 358 ft 0 kts 25°
2026-04-16 13:03 50.04698 8.57613 360 ft 4 kts 25°
2026-04-16 13:03 50.04674 8.57596 363 ft 4 kts 20°
2026-04-16 13:03 50.04649 8.57581 360 ft 4 kts 25°
2026-04-16 13:03 50.04628 8.57559 357 ft 4 kts 57°
2026-04-16 13:04 50.04624 8.57548 360 ft 4 kts 69°
2026-04-16 13:04 50.04633 8.57588 363 ft 4 kts 69°
2026-04-16 13:04 50.04642 8.57627 359 ft 3 kts 69°
2026-04-16 13:04 50.04643 8.57631 360 ft 0 kts 69°
2026-04-16 13:06 50.04652 8.57666 361 ft 10 kts 69°
2026-04-16 13:06 50.04691 8.57824 362 ft 19 kts 69°
2026-04-16 13:06 50.04670 8.57977 362 ft 20 kts 158°
2026-04-16 13:07 50.04549 8.58046 367 ft 15 kts 158°
2026-04-16 13:07 50.04495 8.58081 367 ft 6 kts 156°
2026-04-16 13:07 50.04480 8.58091 365 ft 0 kts 156°
2026-04-16 13:09 50.04452 8.58109 371 ft 11 kts 159°
2026-04-16 13:09 50.04377 8.58120 370 ft 10 kts 228°
2026-04-16 13:10 50.04369 8.58093 372 ft 0 kts 249°
2026-04-16 13:10 50.04351 8.58021 369 ft 26 kts 249°
2026-04-16 13:11 50.04201 8.57394 366 ft 94 kts 250°
2026-04-16 13:11 50.03912 8.56185 354 ft 145 kts 249°
2026-04-16 13:11 50.03520 8.54539 518 ft 169 kts 248°
2026-04-16 13:11 50.03112 8.52836 1139 ft 168 kts 248°
2026-04-16 13:12 50.02694 8.51127 1728 ft 170 kts 247°
2026-04-16 13:12 50.01870 8.49704 1912 ft 193 kts 207°
2026-04-16 13:12 50.00552 8.49056 2307 ft 202 kts 197°
2026-04-16 13:12 49.99188 8.48459 2908 ft 204 kts 197°
2026-04-16 13:13 49.97825 8.47858 3492 ft 206 kts 198°
2026-04-16 13:13 49.96436 8.47234 4033 ft 207 kts 198°
2026-04-16 13:13 49.95047 8.46602 4369 ft 218 kts 198°
2026-04-16 13:13 49.93518 8.45894 4547 ft 240 kts 198°
2026-04-16 13:14 49.91955 8.44913 5178 ft 243 kts 215°
2026-04-16 13:14 49.90742 8.43118 5919 ft 243 kts 237°
2026-04-16 13:14 49.89863 8.40874 6672 ft 244 kts 240°
2026-04-16 13:14 49.89043 8.38562 7397 ft 246 kts 249°
2026-04-16 13:15 49.88630 8.35976 8060 ft 254 kts 265°
2026-04-16 13:15 49.88699 8.33152 8533 ft 269 kts 275°
2026-04-16 13:15 49.88865 8.30271 9284 ft 274 kts 275°
2026-04-16 13:15 49.89183 8.27341 10106 ft 278 kts 287°
2026-04-16 13:16 49.90000 8.24612 10824 ft 282 kts 302°
2026-04-16 13:16 49.91183 8.22093 11242 ft 300 kts 305°
2026-04-16 13:16 49.92471 8.19394 11443 ft 323 kts 305°
2026-04-16 13:16 49.93885 8.16534 11669 ft 343 kts 310°
2026-04-16 13:17 49.95638 8.13948 12207 ft 351 kts 317°
2026-04-16 13:17 49.97506 8.11477 12897 ft 354 kts 317°
2026-04-16 13:17 49.99382 8.08978 13622 ft 355 kts 317°
2026-04-16 13:17 50.01260 8.06465 14307 ft 358 kts 317°
2026-04-16 13:18 50.03149 8.03928 14947 ft 360 kts 317°
2026-04-16 13:18 50.05049 8.01372 15595 ft 363 kts 317°
2026-04-16 13:18 50.06966 7.98791 16212 ft 365 kts 317°
2026-04-16 13:18 50.08896 7.96195 16795 ft 368 kts 317°
2026-04-16 13:19 50.10842 7.93584 17376 ft 371 kts 317°
2026-04-16 13:19 50.12802 7.90948 17963 ft 373 kts 317°
2026-04-16 13:19 50.14751 7.88321 18511 ft 376 kts 317°
2026-04-16 13:19 50.16741 7.85633 19033 ft 378 kts 316°
2026-04-16 13:20 50.18738 7.82934 19537 ft 380 kts 316°
2026-04-16 13:20 50.20740 7.80226 20039 ft 382 kts 316°
2026-04-16 13:20 50.22754 7.77499 20538 ft 384 kts 316°
2026-04-16 13:20 50.24816 7.74824 21015 ft 387 kts 321°
2026-04-16 13:21 50.27146 7.72657 21488 ft 393 kts 332°
2026-04-16 13:21 50.29666 7.70938 21963 ft 396 kts 333°
2026-04-16 13:21 50.32202 7.69219 22443 ft 398 kts 333°
2026-04-16 13:21 50.34749 7.67479 22924 ft 400 kts 333°
2026-04-16 13:22 50.37307 7.65725 23395 ft 402 kts 333°
2026-04-16 13:22 50.39875 7.63959 23864 ft 405 kts 333°
2026-04-16 13:22 50.42457 7.62178 24243 ft 407 kts 332°
2026-04-16 13:22 50.45018 7.60403 24605 ft 409 kts 332°
2026-04-16 13:23 50.47626 7.58597 24969 ft 411 kts 332°
2026-04-16 13:23 50.50247 7.56786 25341 ft 412 kts 332°
2026-04-16 13:23 50.52880 7.54969 25686 ft 415 kts 332°
2026-04-16 13:23 50.55517 7.53097 26026 ft 416 kts 328°
2026-04-16 13:24 50.57987 7.50757 26368 ft 415 kts 323°
2026-04-16 13:24 50.60412 7.48272 26717 ft 417 kts 323°
2026-04-16 13:24 50.62854 7.45770 27066 ft 419 kts 323°
2026-04-16 13:24 50.65302 7.43260 27458 ft 420 kts 323°
2026-04-16 13:25 50.67757 7.40741 27823 ft 422 kts 323°
2026-04-16 13:25 50.70224 7.38209 28174 ft 423 kts 322°
2026-04-16 13:25 50.72584 7.35449 28503 ft 421 kts 314°
2026-04-16 13:25 50.74605 7.32137 28846 ft 419 kts 306°
2026-04-16 13:26 50.76251 7.28352 29177 ft 417 kts 297°
2026-04-16 13:26 50.77596 7.24291 29566 ft 416 kts 295°
2026-04-16 13:26 50.78899 7.20286 30043 ft 415 kts 295°
2026-04-16 13:26 50.80215 7.16243 30471 ft 413 kts 295°
2026-04-16 13:27 50.81524 7.12212 30870 ft 411 kts 295°
2026-04-16 13:27 50.82825 7.08198 31286 ft 408 kts 295°
2026-04-16 13:27 50.84116 7.04213 31670 ft 406 kts 295°
2026-04-16 13:27 50.85401 7.00253 32081 ft 404 kts 296°
2026-04-16 13:28 50.86677 6.96305 32195 ft 400 kts 296°
2026-04-16 13:28 50.89168 6.88558 32230 ft 391 kts 296°
2026-04-16 13:29 50.91632 6.80876 32223 ft 390 kts 296°
2026-04-16 13:29 50.94084 6.73210 32216 ft 390 kts 296°
2026-04-16 13:30 50.96518 6.65590 32226 ft 390 kts 296°
2026-04-16 13:30 50.98962 6.57906 32223 ft 389 kts 296°
2026-04-16 13:31 51.01394 6.50236 32231 ft 389 kts 296°
2026-04-16 13:31 51.03815 6.42565 32228 ft 388 kts 295°
2026-04-16 13:32 51.06234 6.34888 32224 ft 388 kts 295°
2026-04-16 13:32 51.08640 6.27213 32222 ft 388 kts 295°
2026-04-16 13:33 51.11046 6.19525 32220 ft 388 kts 295°
2026-04-16 13:33 51.13040 6.13141 32223 ft 387 kts 295°
2026-04-16 13:34 51.15039 6.03733 32226 ft 386 kts 285°
2026-04-16 13:34 51.16382 5.95465 32224 ft 385 kts 285°
2026-04-16 13:35 51.17718 5.87196 32219 ft 385 kts 285°
2026-04-16 13:35 51.18875 5.80345 32228 ft 385 kts 287°
2026-04-16 13:36 51.20621 5.72280 32238 ft 385 kts 290°
2026-04-16 13:36 51.22481 5.64286 32240 ft 384 kts 290°
2026-04-16 13:37 51.24285 5.56279 32238 ft 383 kts 289°
2026-04-16 13:37 51.26028 5.48254 32239 ft 382 kts 289°
2026-04-16 13:38 51.27746 5.40227 32221 ft 382 kts 289°
2026-04-16 13:38 51.29466 5.32211 32235 ft 381 kts 289°
2026-04-16 13:39 51.31180 5.24237 32217 ft 381 kts 289°
2026-04-16 13:39 51.32896 5.16224 32223 ft 381 kts 289°
2026-04-16 13:40 51.34602 5.08205 32228 ft 381 kts 289°
2026-04-16 13:40 51.36298 5.00190 32229 ft 380 kts 288°
2026-04-16 13:41 51.37988 4.92163 32224 ft 380 kts 288°
2026-04-16 13:41 51.39673 4.84150 32226 ft 380 kts 288°
2026-04-16 13:42 51.41344 4.76189 32227 ft 379 kts 288°
2026-04-16 13:42 51.43015 4.68177 32228 ft 379 kts 288°
2026-04-16 13:43 51.44679 4.60172 32215 ft 378 kts 288°
2026-04-16 13:43 51.46340 4.52163 32222 ft 378 kts 288°
2026-04-16 13:44 51.47992 4.44159 32220 ft 378 kts 288°
2026-04-16 13:44 51.49633 4.36149 32257 ft 378 kts 288°
2026-04-16 13:45 51.51256 4.28198 32238 ft 378 kts 288°
2026-04-16 13:45 51.52888 4.20188 32237 ft 377 kts 288°
2026-04-16 13:46 51.54521 4.12128 32225 ft 377 kts 288°
2026-04-16 13:46 51.56131 4.04166 32233 ft 377 kts 288°
2026-04-16 13:47 51.57746 3.96140 32235 ft 377 kts 288°
2026-04-16 13:47 51.59360 3.88105 32232 ft 377 kts 287°
2026-04-16 13:48 51.60968 3.80066 32236 ft 377 kts 287°
2026-04-16 13:48 51.62553 3.72087 32238 ft 376 kts 287°
2026-04-16 13:49 51.64133 3.64067 32242 ft 376 kts 287°
2026-04-16 13:49 51.65712 3.56049 32239 ft 375 kts 287°
2026-04-16 13:50 51.67285 3.48038 32231 ft 375 kts 287°
2026-04-16 13:50 51.68853 3.40025 32231 ft 375 kts 287°
2026-04-16 13:51 51.70416 3.31997 32229 ft 375 kts 287°
2026-04-16 13:51 51.71972 3.23952 32233 ft 375 kts 286°
2026-04-16 13:52 51.72988 3.15780 32235 ft 376 kts 272°
2026-04-16 13:52 51.72441 3.07363 32228 ft 378 kts 265°
2026-04-16 13:53 51.71707 2.98961 32229 ft 378 kts 265°
2026-04-16 13:53 51.70974 2.90547 32229 ft 379 kts 265°
2026-04-16 13:54 51.70241 2.82136 32216 ft 379 kts 264°
2026-04-16 13:54 51.69495 2.73729 32229 ft 379 kts 264°
2026-04-16 13:55 51.68738 2.65350 32196 ft 382 kts 264°
2026-04-16 13:55 51.67972 2.56844 32200 ft 385 kts 264°
2026-04-16 13:56 51.67199 2.48272 32197 ft 387 kts 264°
2026-04-16 13:56 51.66416 2.39687 32207 ft 388 kts 264°
2026-04-16 13:57 51.65623 2.31094 32205 ft 388 kts 264°
2026-04-16 13:57 51.64827 2.22490 32205 ft 388 kts 264°
2026-04-16 13:58 51.64016 2.13871 31226 ft 396 kts 263°
2026-04-16 13:58 51.63598 2.09417 30069 ft 407 kts 263°
2026-04-16 13:58 51.63183 2.04953 29141 ft 410 kts 263°
2026-04-16 13:58 51.62765 2.00445 28118 ft 404 kts 263°
2026-04-16 13:59 51.62350 1.95984 27035 ft 401 kts 263°
2026-04-16 13:59 51.61940 1.91561 25986 ft 397 kts 262°
2026-04-16 13:59 51.61473 1.87201 24985 ft 394 kts 256°
2026-04-16 13:59 51.60503 1.83102 24026 ft 393 kts 244°
2026-04-16 14:00 51.58969 1.79467 22934 ft 393 kts 232°
2026-04-16 14:00 51.57160 1.76194 21860 ft 390 kts 231°
2026-04-16 14:00 51.55366 1.72949 20835 ft 386 kts 231°
2026-04-16 14:00 51.53594 1.69737 19879 ft 381 kts 231°
2026-04-16 14:01 51.51856 1.66587 18960 ft 377 kts 231°
2026-04-16 14:01 51.50128 1.63430 17996 ft 373 kts 233°
2026-04-16 14:01 51.48716 1.59983 17053 ft 366 kts 245°
2026-04-16 14:01 51.47791 1.56278 16582 ft 353 kts 251°
2026-04-16 14:02 51.46952 1.52580 16101 ft 349 kts 251°
2026-04-16 14:02 51.46120 1.49000 15652 ft 345 kts 250°
2026-04-16 14:02 51.45280 1.45413 15204 ft 342 kts 250°
2026-04-16 14:02 51.44442 1.41857 14754 ft 339 kts 249°
2026-04-16 14:03 51.43340 1.38524 14296 ft 338 kts 237°
2026-04-16 14:03 51.41804 1.35687 14030 ft 336 kts 225°
2026-04-16 14:03 51.39969 1.33378 13864 ft 338 kts 219°
2026-04-16 14:03 51.38072 1.31130 13675 ft 337 kts 219°
2026-04-16 14:04 51.36183 1.28889 13495 ft 336 kts 219°
2026-04-16 14:04 51.34318 1.26678 13305 ft 335 kts 219°
2026-04-16 14:04 51.32435 1.24449 13117 ft 334 kts 219°
2026-04-16 14:04 51.30587 1.22267 12945 ft 333 kts 219°
2026-04-16 14:05 51.28721 1.20072 12766 ft 332 kts 219°
2026-04-16 14:05 51.26858 1.17882 12579 ft 331 kts 219°
2026-04-16 14:05 51.25002 1.15701 12406 ft 330 kts 219°
2026-04-16 14:05 51.23152 1.13527 12217 ft 329 kts 219°
2026-04-16 14:06 51.21327 1.11387 12050 ft 327 kts 219°
2026-04-16 14:06 51.19486 1.09227 11871 ft 327 kts 219°
2026-04-16 14:06 51.17671 1.07098 11695 ft 326 kts 219°
2026-04-16 14:06 51.15841 1.04955 11512 ft 325 kts 219°
2026-04-16 14:07 51.14017 1.02821 11344 ft 324 kts 219°
2026-04-16 14:07 51.12217 1.00721 11164 ft 323 kts 219°
2026-04-16 14:07 51.10399 0.98600 10995 ft 322 kts 219°
2026-04-16 14:07 51.08593 0.96496 10815 ft 316 kts 219°
2026-04-16 14:08 51.06869 0.94426 10693 ft 302 kts 224°
2026-04-16 14:08 51.05512 0.92038 10533 ft 288 kts 237°
2026-04-16 14:08 51.04559 0.89313 10385 ft 276 kts 246°
2026-04-16 14:08 51.03758 0.86580 10118 ft 270 kts 245°
2026-04-16 14:09 51.02962 0.83898 10034 ft 267 kts 245°
2026-04-16 14:09 51.02172 0.81256 9944 ft 267 kts 245°
2026-04-16 14:09 51.01373 0.78587 9788 ft 267 kts 245°
2026-04-16 14:09 51.00580 0.75939 9638 ft 266 kts 245°
2026-04-16 14:10 50.99782 0.73279 9480 ft 266 kts 245°
2026-04-16 14:10 50.98984 0.70627 9327 ft 265 kts 245°
2026-04-16 14:10 50.98192 0.67983 9178 ft 264 kts 245°
2026-04-16 14:10 50.97413 0.65383 9048 ft 263 kts 245°
2026-04-16 14:11 50.96625 0.62764 8888 ft 263 kts 245°
2026-04-16 14:11 50.95834 0.60141 8746 ft 262 kts 245°
2026-04-16 14:11 50.95043 0.57516 8605 ft 263 kts 245°
2026-04-16 14:11 50.94253 0.54899 8460 ft 262 kts 245°
2026-04-16 14:12 50.93467 0.52302 8327 ft 261 kts 245°
2026-04-16 14:12 50.92926 0.49584 8192 ft 259 kts 266°
2026-04-16 14:12 50.93230 0.46830 8073 ft 261 kts 292°
2026-04-16 14:12 50.94370 0.44564 7930 ft 269 kts 316°
2026-04-16 14:13 50.95893 0.42801 7781 ft 272 kts 321°
2026-04-16 14:13 50.97456 0.41102 7641 ft 273 kts 322°
2026-04-16 14:13 50.99024 0.39383 7484 ft 273 kts 321°
2026-04-16 14:13 51.00590 0.37672 7338 ft 272 kts 321°
2026-04-16 14:14 51.02142 0.35958 7199 ft 272 kts 321°
2026-04-16 14:14 51.03685 0.34248 7042 ft 266 kts 321°
2026-04-16 14:14 51.05138 0.32670 6893 ft 245 kts 321°
2026-04-16 14:14 51.06507 0.31195 6472 ft 234 kts 321°
2026-04-16 14:15 51.07854 0.29775 5894 ft 231 kts 321°
2026-04-16 14:15 51.09188 0.28366 5327 ft 232 kts 321°
2026-04-16 14:15 51.10513 0.26940 5088 ft 226 kts 321°
2026-04-16 14:15 51.11777 0.25590 4980 ft 213 kts 322°
2026-04-16 14:16 51.12926 0.24223 4870 ft 199 kts 307°
2026-04-16 14:16 51.13715 0.22494 4757 ft 195 kts 298°
2026-04-16 14:16 51.14415 0.20649 4505 ft 192 kts 296°
2026-04-16 14:16 51.15106 0.18849 4262 ft 190 kts 296°
2026-04-16 14:17 51.15797 0.17058 4011 ft 189 kts 297°
2026-04-16 14:17 51.16483 0.15251 3772 ft 191 kts 296°
2026-04-16 14:17 51.17167 0.13433 3537 ft 190 kts 296°
2026-04-16 14:17 51.17841 0.11649 3355 ft 189 kts 296°
2026-04-16 14:18 51.18394 0.09799 3193 ft 180 kts 279°
2026-04-16 14:18 51.18468 0.07885 3145 ft 170 kts 260°
2026-04-16 14:18 51.18232 0.06058 2967 ft 169 kts 256°
2026-04-16 14:18 51.17986 0.04243 2774 ft 169 kts 256°
2026-04-16 14:19 51.17742 0.02439 2568 ft 165 kts 255°
2026-04-16 14:19 51.17501 0.00662 2364 ft 164 kts 255°
2026-04-16 14:19 51.17258 -0.01132 2270 ft 166 kts 255°
2026-04-16 14:19 51.17021 -0.02883 2047 ft 155 kts 254°
2026-04-16 14:20 51.16802 -0.04496 1860 ft 148 kts 254°
2026-04-16 14:20 51.16585 -0.06084 1650 ft 146 kts 254°
2026-04-16 14:20 51.16370 -0.07661 1457 ft 145 kts 254°
2026-04-16 14:20 51.16159 -0.09206 1251 ft 141 kts 254°
2026-04-16 14:21 51.15953 -0.10713 1061 ft 140 kts 254°
2026-04-16 14:21 51.15746 -0.12224 880 ft 140 kts 255°
2026-04-16 14:21 51.15537 -0.13742 703 ft 141 kts 254°
2026-04-16 14:21 51.15329 -0.15274 482 ft 142 kts 254°
2026-04-16 14:22 51.15121 -0.16792 306 ft 139 kts 253°
2026-04-16 14:22 51.14923 -0.18233 210 ft 125 kts 256°
2026-04-16 14:22 51.14778 -0.19293 208 ft 70 kts 257°
2026-04-16 14:22 51.14709 -0.19801 209 ft 33 kts 261°
2026-04-16 14:23 51.14723 -0.20147 209 ft 30 kts 281°
2026-04-16 14:23 51.14766 -0.20465 203 ft 26 kts 283°
2026-04-16 14:23 51.14813 -0.20635 213 ft 12 kts 346°
2026-04-16 14:23 51.14872 -0.20572 208 ft 10 kts 64°
2026-04-16 14:24 51.14890 -0.20472 209 ft 9 kts 77°
2026-04-16 14:24 51.14903 -0.20382 207 ft 8 kts 77°
2026-04-16 14:24 51.14914 -0.20304 211 ft 7 kts 77°
2026-04-16 14:24 51.14923 -0.20237 203 ft 7 kts 78°
2026-04-16 14:25 51.14939 -0.20116 208 ft 12 kts 78°
2026-04-16 14:25 51.14956 -0.19990 206 ft 11 kts 77°
2026-04-16 14:25 51.14971 -0.19883 210 ft 9 kts 77°
2026-04-16 14:25 51.14983 -0.19796 206 ft 7 kts 77°
2026-04-16 14:26 51.15000 -0.19679 204 ft 15 kts 77°
2026-04-16 14:26 51.15026 -0.19489 204 ft 17 kts 77°
2026-04-16 14:26 51.15052 -0.19307 204 ft 16 kts 77°
2026-04-16 14:26 51.15075 -0.19136 215 ft 15 kts 78°
2026-04-16 14:27 51.15095 -0.18981 208 ft 14 kts 78°
2026-04-16 14:27 51.15114 -0.18839 207 ft 13 kts 78°
2026-04-16 14:27 51.15131 -0.18711 216 ft 11 kts 78°
2026-04-16 14:27 51.15146 -0.18596 212 ft 10 kts 78°
2026-04-16 14:28 51.15159 -0.18496 213 ft 9 kts 78°
2026-04-16 14:28 51.15171 -0.18407 203 ft 8 kts 78°
2026-04-16 14:28 51.15181 -0.18329 206 ft 7 kts 78°
2026-04-16 14:28 51.15191 -0.18259 213 ft 7 kts 70°
2026-04-16 14:29 51.15227 -0.18226 204 ft 12 kts
2026-04-16 14:29 51.15368 -0.18276 214 ft 18 kts 347°
2026-04-16 14:29 51.15458 -0.18306 208 ft 21 kts 349°
2026-04-16 14:29 51.15595 -0.18348 215 ft 17 kts 350°
2026-04-16 14:30 51.15659 -0.18240 204 ft 14 kts 76°
2026-04-16 14:30 51.15682 -0.18096 208 ft 13 kts 75°
2026-04-16 14:30 51.15741 -0.18043 204 ft 13 kts 346°
2026-04-16 14:30 51.15866 -0.18087 206 ft 22 kts 348°
2026-04-16 14:31 51.16003 -0.18130 210 ft 19 kts 347°
2026-04-16 14:31 51.16104 -0.18167 209 ft 13 kts 347°
2026-04-16 14:31 51.16177 -0.18167 206 ft 8 kts 51°
2026-04-16 14:31 51.16184 -0.18103 209 ft 5 kts 77°
2026-04-16 14:32 51.16188 -0.18075 210 ft 0 kts 77°